Location: ??????
(44.5958°N, 34.0092°E)
Time: 18:59:10
(UTC+00:00)

CZ-2D R/B - Pass Details

Date: 06 June 2020
Orbit: 791 x 846 km, 98.7° (Epoch: 06 July)

Event Time Altitude Azimuth Distance (km) Brightness Sun altitude
Rises 00:45:48 0° 1° (N) 3,310 6.1 -10.8°
Reaches altitude 10° 00:48:38 10° 347° (NNW) 2,371 5.0 -10.5°
Maximum altitude 00:52:29 21° 299° (WNW) 1,706 3.7 -10.0°
Drops below altitude 10° 00:56:18 10° 251° (WSW) 2,356 4.0 -9.5°
Enters shadow 00:56:32 - 249° (WSW) 2,422 4.0 -9.5°
